Wetterdaten: Woche 29.02.16 - 06.03.16 (KW9)
Datum Zeit Auen-Temp. Temp gefhlt Luftfeuchte Luftdruck Regen Wind Richtung Sonnenschein Taupunkt Windben
29.02.2016 00:00 -0,2 C -0,5 C 91 % 1008,4 hPa 0,0 mm 3,8 km/h (1 Bft) O-NO 0,00 h -1,5 C 4,7 km/h (1 Bft)
29.02.2016 01:00 -0,4 C -0,7 C 90 % 1008,2 hPa 0,0 mm 4,9 km/h (1 Bft) O-NO 0,00 h -1,9 C 6,3 km/h (2 Bft)
29.02.2016 02:00 -0,4 C -0,7 C 93 % 1007,8 hPa 0,0 mm 4,4 km/h (1 Bft) O-NO 0,00 h -1,4 C 5,8 km/h (2 Bft)
29.02.2016 03:00 -0,3 C -0,6 C 93 % 1007,4 hPa 0,0 mm 5,0 km/h (1 Bft) O-NO 0,00 h -1,3 C 6,5 km/h (2 Bft)
29.02.2016 04:00 -0,3 C -0,6 C 94 % 1006,9 hPa 0,0 mm 2,7 km/h (1 Bft) O-NO 0,00 h -1,2 C 3,2 km/h (1 Bft)
29.02.2016 05:00 -0,3 C -0,5 C 93 % 1006,9 hPa 0,0 mm 2,2 km/h (1 Bft) N-NO 0,00 h -1,3 C 2,5 km/h (1 Bft)
29.02.2016 06:00 -0,3 C -0,4 C 88 % 1006,7 hPa 0,0 mm 1,5 km/h (1 Bft) N-NW 0,00 h -2,0 C 2,4 km/h (1 Bft)
29.02.2016 07:00 -0,3 C -0,2 C 87 % 1007,0 hPa 0,0 mm 0,1 km/h (0 Bft) N 0,00 h -2,1 C 0,0 km/h (0 Bft)
29.02.2016 08:00 -0,0 C 0,1 C 89 % 1007,2 hPa 0,0 mm 0,0 km/h (0 Bft) N 0,00 h -1,6 C 0,0 km/h (0 Bft)
29.02.2016 09:00 0,4 C 0,8 C 89 % 1007,4 hPa 0,7 mm 0,0 km/h (0 Bft) N 0,00 h -1,2 C 0,0 km/h (0 Bft)
29.02.2016 10:00 0,8 C 1,9 C 89 % 1007,6 hPa 0,0 mm 0,4 km/h (0 Bft) W-NW 0,00 h -0,8 C 1,4 km/h (1 Bft)
29.02.2016 11:00 0,9 C 1,7 C 89 % 1007,9 hPa 0,0 mm 2,4 km/h (1 Bft) W 0,00 h -0,7 C 3,1 km/h (1 Bft)
29.02.2016 12:00 0,8 C 1,5 C 89 % 1007,9 hPa 0,0 mm 1,5 km/h (1 Bft) W-SW 0,00 h -0,8 C 2,4 km/h (1 Bft)
29.02.2016 13:00 0,7 C 1,6 C 89 % 1007,9 hPa 0,0 mm 2,8 km/h (1 Bft) W-SW 0,00 h -0,9 C 3,8 km/h (1 Bft)
29.02.2016 14:00 0,9 C 1,4 C 88 % 1008,2 hPa 1,4 mm 5,7 km/h (1 Bft) W-NW 0,00 h -0,9 C 6,5 km/h (2 Bft)
29.02.2016 15:00 0,8 C 1,0 C 88 % 1008,7 hPa 0,7 mm 6,1 km/h (2 Bft) W-SW 0,00 h -1,0 C 6,5 km/h (2 Bft)
29.02.2016 16:00 0,7 C 0,4 C 88 % 1009,1 hPa 0,7 mm 6,7 km/h (2 Bft) W-NW 0,00 h -1,1 C 8,0 km/h (2 Bft)
29.02.2016 17:00 0,4 C -0,1 C 89 % 1010,0 hPa 0,0 mm 6,7 km/h (2 Bft) W 0,00 h -1,3 C 7,9 km/h (2 Bft)
29.02.2016 18:00 0,1 C -0,4 C 88 % 1010,7 hPa 0,0 mm 7,1 km/h (2 Bft) W 0,00 h -1,7 C 9,4 km/h (2 Bft)
29.02.2016 19:00 -0,3 C -0,5 C 89 % 1011,8 hPa 0,0 mm 1,5 km/h (1 Bft) W 0,00 h -2,0 C 0,3 km/h (0 Bft)
29.02.2016 20:00 -0,9 C -1,0 C 88 % 1012,6 hPa 0,0 mm 0,0 km/h (0 Bft) N 0,00 h -2,6 C 0,0 km/h (0 Bft)
29.02.2016 21:00 -1,2 C -1,3 C 88 % 1013,4 hPa 0,0 mm 0,0 km/h (0 Bft) N 0,00 h -2,9 C 0,0 km/h (0 Bft)
29.02.2016 22:00 -1,6 C -1,7 C 88 % 1014,0 hPa 0,0 mm 0,0 km/h (0 Bft) N 0,00 h -3,3 C 0,0 km/h (0 Bft)
29.02.2016 23:00 -2,1 C -2,2 C 87 % 1014,5 hPa 0,0 mm 0,0 km/h (0 Bft) N 0,00 h -3,9 C 0,0 km/h (0 Bft)
01.03.2016 00:00 -2,4 C -2,5 C 87 % 1014,6 hPa 0,0 mm 0,0 km/h (0 Bft) N 0,00 h -4,2 C 0,0 km/h (0 Bft)
01.03.2016 01:00 -2,6 C -2,7 C 87 % 1015,0 hPa 0,0 mm 0,0 km/h (0 Bft) N 0,00 h -4,5 C 0,0 km/h (0 Bft)
01.03.2016 02:00 -2,9 C -3,0 C 87 % 1015,0 hPa 0,0 mm 0,0 km/h (0 Bft) N 0,00 h -4,8 C 0,0 km/h (0 Bft)
01.03.2016 03:00 -2,9 C -3,0 C 87 % 1015,1 hPa 0,0 mm 0,0 km/h (0 Bft) N 0,00 h -4,8 C 0,0 km/h (0 Bft)
01.03.2016 04:00 -3,1 C -3,2 C 87 % 1015,5 hPa 0,0 mm 0,0 km/h (0 Bft) N 0,00 h -4,9 C 0,0 km/h (0 Bft)
01.03.2016 05:00 -3,2 C -3,4 C 87 % 1016,1 hPa 0,0 mm 0,0 km/h (0 Bft) N 0,00 h -5,0 C 0,0 km/h (0 Bft)
01.03.2016 06:00 -3,2 C -3,3 C 87 % 1016,6 hPa 0,0 mm 0,0 km/h (0 Bft) N 0,00 h -5,0 C 0,0 km/h (0 Bft)
01.03.2016 07:00 -3,0 C -3,0 C 86 % 1017,1 hPa 0,0 mm 0,0 km/h (0 Bft) N 0,00 h -5,0 C 0,0 km/h (0 Bft)
01.03.2016 08:00 -2,5 C -2,1 C 86 % 1017,7 hPa 0,0 mm 0,0 km/h (0 Bft) N 0,00 h -4,5 C 0,0 km/h (0 Bft)
01.03.2016 09:00 -1,6 C -0,7 C 87 % 1018,0 hPa 0,0 mm 0,0 km/h (0 Bft) N 0,00 h -3,6 C 0,0 km/h (0 Bft)
01.03.2016 10:00 -1,1 C 0,1 C 86 % 1018,0 hPa 0,0 mm 0,0 km/h (0 Bft) N 0,00 h -3,1 C 0,0 km/h (0 Bft)
01.03.2016 11:00 -0,9 C 0,2 C 85 % 1018,2 hPa 0,0 mm 0,0 km/h (0 Bft) N 0,00 h -3,1 C 0,0 km/h (0 Bft)
01.03.2016 12:00 -0,3 C 1,2 C 85 % 1018,1 hPa 0,0 mm 0,0 km/h (0 Bft) N 0,00 h -2,6 C 0,0 km/h (0 Bft)
01.03.2016 13:00 0,8 C 3,3 C 84 % 1017,6 hPa 0,7 mm 0,3 km/h (0 Bft) W 0,00 h -1,7 C 1,3 km/h (1 Bft)
01.03.2016 14:00 0,9 C 3,2 C 82 % 1017,0 hPa 0,7 mm 7,3 km/h (2 Bft) W 0,00 h -1,8 C 12,1 km/h (2 Bft)
01.03.2016 15:00 0,8 C 2,7 C 82 % 1016,9 hPa 0,7 mm 5,7 km/h (1 Bft) W-SW 0,00 h -1,9 C 7,3 km/h (2 Bft)
01.03.2016 16:00 1,3 C 4,6 C 81 % 1016,8 hPa 0,0 mm 4,0 km/h (1 Bft) W-NW 0,10 h -1,5 C 3,6 km/h (1 Bft)
01.03.2016 17:00 0,2 C 0,8 C 81 % 1016,6 hPa 0,7 mm 0,1 km/h (0 Bft) N 0,00 h -2,7 C 0,0 km/h (0 Bft)
01.03.2016 18:00 -1,8 C -2,3 C 85 % 1016,4 hPa 0,0 mm 1,2 km/h (1 Bft) W-SW 0,00 h -4,0 C 1,8 km/h (1 Bft)
01.03.2016 19:00 -2,4 C -2,9 C 88 % 1016,1 hPa 0,0 mm 4,9 km/h (1 Bft) SW 0,00 h -4,1 C 5,4 km/h (1 Bft)
01.03.2016 20:00 -4,2 C -4,6 C 88 % 1015,3 hPa 0,0 mm 0,0 km/h (0 Bft) N 0,00 h -6,0 C 0,0 km/h (0 Bft)
01.03.2016 21:00 -4,7 C -4,9 C 87 % 1015,1 hPa 0,0 mm 0,1 km/h (0 Bft) SO 0,00 h -6,6 C 0,4 km/h (0 Bft)
01.03.2016 22:00 -3,0 C -3,0 C 88 % 1014,7 hPa 0,0 mm 1,1 km/h (0 Bft) O-SO 0,00 h -4,7 C 1,6 km/h (1 Bft)
01.03.2016 23:00 -1,8 C -2,0 C 91 % 1014,2 hPa 0,0 mm 0,4 km/h (0 Bft) N 0,00 h -3,1 C 0,6 km/h (0 Bft)
02.03.2016 00:00 -1,3 C -1,6 C 91 % 1013,6 hPa 0,0 mm 1,4 km/h (1 Bft) S 0,00 h -2,6 C 3,2 km/h (1 Bft)
02.03.2016 01:00 -0,8 C -1,0 C 90 % 1013,0 hPa 0,0 mm 1,5 km/h (1 Bft) N-NO 0,00 h -2,2 C 1,6 km/h (1 Bft)
02.03.2016 02:00 -0,2 C -0,3 C 88 % 1012,0 hPa 0,0 mm 1,5 km/h (1 Bft) O-SO 0,00 h -1,9 C 3,0 km/h (1 Bft)
02.03.2016 03:00 0,2 C 0,0 C 92 % 1011,1 hPa 0,0 mm 0,9 km/h (0 Bft) S-SW 0,00 h -1,0 C 1,9 km/h (1 Bft)
02.03.2016 04:00 1,3 C 0,8 C 93 % 1010,8 hPa 0,0 mm 6,9 km/h (2 Bft) SW 0,00 h 0,2 C 11,5 km/h (2 Bft)
02.03.2016 05:00 1,7 C 1,3 C 92 % 1010,3 hPa 0,0 mm 6,1 km/h (2 Bft) W-SW 0,00 h 0,5 C 9,4 km/h (2 Bft)
02.03.2016 06:00 1,7 C 1,1 C 91 % 1009,7 hPa 0,0 mm 7,9 km/h (2 Bft) S 0,00 h 0,3 C 10,8 km/h (2 Bft)
02.03.2016 07:00 2,2 C 1,8 C 89 % 1009,2 hPa 0,0 mm 7,8 km/h (2 Bft) S 0,00 h 0,5 C 9,3 km/h (2 Bft)
02.03.2016 08:00 2,5 C 3,9 C 85 % 1008,9 hPa 3,4 mm 3,5 km/h (1 Bft) O-SO 0,00 h 0,2 C 3,6 km/h (1 Bft)
02.03.2016 09:00 3,3 C 7,2 C 84 % 1008,3 hPa 2,7 mm 3,6 km/h (1 Bft) SO 0,42 h 0,9 C 5,0 km/h (1 Bft)
02.03.2016 10:00 4,6 C 11,8 C 83 % 1007,6 hPa 1,4 mm 0,1 km/h (0 Bft) N 1,00 h 1,9 C 0,0 km/h (0 Bft)
02.03.2016 11:00 5,7 C 13,3 C 81 % 1006,7 hPa 2,1 mm 1,3 km/h (1 Bft) W-NW 0,92 h 2,6 C 1,8 km/h (1 Bft)
02.03.2016 12:00 6,3 C 11,5 C 77 % 1005,8 hPa 1,4 mm 5,4 km/h (1 Bft) S-SW 0,17 h 2,6 C 7,2 km/h (2 Bft)
02.03.2016 13:00 6,4 C 11,5 C 76 % 1004,2 hPa 0,0 mm 3,8 km/h (1 Bft) S 0,08 h 2,4 C 4,3 km/h (1 Bft)
02.03.2016 14:00 6,8 C 11,3 C 74 % 1002,7 hPa 0,0 mm 1,5 km/h (1 Bft) O-NO 0,33 h 2,4 C 2,4 km/h (1 Bft)
02.03.2016 15:00 5,4 C 8,9 C 76 % 1001,3 hPa 0,0 mm 2,5 km/h (1 Bft) NW 0,17 h 1,6 C 3,1 km/h (1 Bft)
02.03.2016 16:00 4,4 C 4,4 C 80 % 1001,3 hPa 2,1 mm 6,5 km/h (2 Bft) W-SW 0,00 h 1,2 C 10,0 km/h (2 Bft)
02.03.2016 17:00 3,4 C 2,7 C 85 % 1000,2 hPa 2,1 mm 12,2 km/h (2 Bft) W-SW 0,00 h 1,1 C 20,4 km/h (4 Bft)
02.03.2016 18:00 1,6 C 0,7 C 88 % 1001,6 hPa 2,1 mm 17,8 km/h (3 Bft) NW 0,00 h -0,2 C 22,6 km/h (4 Bft)
02.03.2016 19:00 0,1 C -0,6 C 87 % 1004,7 hPa 0,0 mm 10,0 km/h (2 Bft) W-SW 0,00 h -1,8 C 10,5 km/h (2 Bft)
02.03.2016 20:00 -0,2 C -0,3 C 87 % 1004,9 hPa 0,0 mm 4,0 km/h (1 Bft) SW 0,00 h -2,0 C 4,8 km/h (1 Bft)
02.03.2016 21:00 -0,3 C -0,6 C 88 % 1004,2 hPa 0,0 mm 3,5 km/h (1 Bft) SW 0,00 h -2,1 C 4,5 km/h (1 Bft)
02.03.2016 22:00 -0,8 C -1,1 C 89 % 1003,9 hPa 0,0 mm 3,6 km/h (1 Bft) SW 0,00 h -2,4 C 3,3 km/h (1 Bft)
02.03.2016 23:00 -1,2 C -1,6 C 89 % 1003,6 hPa 0,0 mm 4,1 km/h (1 Bft) SW 0,00 h -2,7 C 4,9 km/h (1 Bft)
03.03.2016 00:00 -1,5 C -1,9 C 87 % 1002,8 hPa 0,0 mm 4,5 km/h (1 Bft) SW 0,00 h -3,3 C 6,4 km/h (2 Bft)
03.03.2016 01:00 -1,9 C -2,2 C 88 % 1002,4 hPa 0,0 mm 0,2 km/h (0 Bft) N 0,00 h -3,6 C 0,0 km/h (0 Bft)
03.03.2016 02:00 -2,5 C -2,8 C 89 % 1002,2 hPa 0,0 mm 0,0 km/h (0 Bft) N 0,00 h -4,0 C 0,3 km/h (0 Bft)
03.03.2016 03:00 -1,5 C -2,4 C 86 % 1002,6 hPa 0,0 mm 10,3 km/h (2 Bft) SW 0,00 h -3,6 C 16,4 km/h (3 Bft)
03.03.2016 04:00 -1,6 C -2,3 C 87 % 1002,9 hPa 0,0 mm 7,4 km/h (2 Bft) SW 0,00 h -3,5 C 7,8 km/h (2 Bft)
03.03.2016 05:00 -1,9 C -2,5 C 86 % 1002,8 hPa 0,0 mm 5,6 km/h (1 Bft) SW 0,00 h -4,0 C 6,4 km/h (2 Bft)
03.03.2016 06:00 -2,2 C -2,8 C 85 % 1003,0 hPa 0,0 mm 6,0 km/h (2 Bft) SW 0,00 h -4,3 C 8,0 km/h (2 Bft)
03.03.2016 07:00 -2,1 C -2,5 C 84 % 1003,0 hPa 0,0 mm 4,0 km/h (1 Bft) SW 0,00 h -4,4 C 4,6 km/h (1 Bft)
03.03.2016 08:00 -1,9 C -1,7 C 81 % 1002,9 hPa 0,0 mm 2,5 km/h (1 Bft) SW 0,00 h -4,6 C 3,0 km/h (1 Bft)
03.03.2016 09:00 -1,3 C -0,5 C 80 % 1002,9 hPa 0,0 mm 3,1 km/h (1 Bft) SW 0,00 h -4,3 C 5,2 km/h (1 Bft)
03.03.2016 10:00 -0,4 C 1,1 C 78 % 1002,6 hPa 0,0 mm 2,1 km/h (1 Bft) SW 0,00 h -3,8 C 2,5 km/h (1 Bft)
03.03.2016 11:00 1,1 C 5,0 C 75 % 1002,8 hPa 0,0 mm 0,6 km/h (0 Bft) SW 0,00 h -2,9 C 1,4 km/h (1 Bft)
03.03.2016 12:00 2,3 C 7,7 C 71 % 1002,8 hPa 2,1 mm 1,7 km/h (1 Bft) NO 0,33 h -2,5 C 3,3 km/h (1 Bft)
03.03.2016 13:00 1,7 C 6,1 C 70 % 1002,6 hPa 0,7 mm 6,0 km/h (2 Bft) O-NO 0,00 h -3,1 C 6,8 km/h (2 Bft)
03.03.2016 14:00 2,1 C 6,3 C 72 % 1001,8 hPa 0,0 mm 4,4 km/h (1 Bft) NO 0,00 h -2,4 C 5,0 km/h (1 Bft)
03.03.2016 15:00 2,3 C 5,4 C 72 % 1001,4 hPa 0,0 mm 1,5 km/h (1 Bft) NO 0,00 h -2,2 C 1,8 km/h (1 Bft)
03.03.2016 16:00 1,1 C 1,9 C 74 % 1001,5 hPa 0,0 mm 3,5 km/h (1 Bft) NW 0,00 h -3,0 C 6,0 km/h (2 Bft)
03.03.2016 17:00 0,2 C 0,0 C 79 % 1002,0 hPa 0,0 mm 6,7 km/h (2 Bft) W-SW 0,00 h -3,0 C 9,7 km/h (2 Bft)
03.03.2016 18:00 -0,1 C -0,5 C 83 % 1002,6 hPa 0,0 mm 6,0 km/h (2 Bft) W 0,00 h -2,6 C 7,5 km/h (2 Bft)
03.03.2016 19:00 -0,2 C -0,7 C 85 % 1003,4 hPa 0,0 mm 6,0 km/h (2 Bft) W-SW 0,00 h -2,5 C 9,0 km/h (2 Bft)
03.03.2016 20:00 -0,5 C -0,8 C 85 % 1003,9 hPa 0,0 mm 4,8 km/h (1 Bft) W-SW 0,00 h -2,7 C 5,4 km/h (1 Bft)
03.03.2016 21:00 -0,5 C -1,0 C 85 % 1004,4 hPa 0,0 mm 7,1 km/h (2 Bft) W 0,00 h -2,8 C 9,2 km/h (2 Bft)
03.03.2016 22:00 -0,6 C -1,3 C 85 % 1005,4 hPa 0,0 mm 9,0 km/h (2 Bft) W 0,00 h -2,9 C 11,9 km/h (2 Bft)
03.03.2016 23:00 -0,6 C -1,3 C 86 % 1006,0 hPa 0,0 mm 8,3 km/h (2 Bft) W 0,00 h -2,7 C 9,8 km/h (2 Bft)
04.03.2016 00:00 -0,8 C -1,6 C 87 % 1006,4 hPa 0,0 mm 8,5 km/h (2 Bft) W 0,00 h -2,7 C 13,7 km/h (3 Bft)
04.03.2016 01:00 -1,3 C -1,8 C 88 % 1006,7 hPa 0,0 mm 5,4 km/h (1 Bft) W-SW 0,00 h -3,1 C 6,3 km/h (2 Bft)
04.03.2016 02:00 -1,4 C -1,8 C 88 % 1006,7 hPa 0,0 mm 5,7 km/h (1 Bft) W-SW 0,00 h -3,2 C 6,2 km/h (2 Bft)
04.03.2016 03:00 -1,4 C -1,8 C 87 % 1006,5 hPa 0,0 mm 5,7 km/h (1 Bft) W-SW 0,00 h -3,2 C 6,4 km/h (2 Bft)
04.03.2016 04:00 -2,0 C -2,5 C 87 % 1006,5 hPa 0,0 mm 5,4 km/h (1 Bft) SW 0,00 h -3,9 C 6,3 km/h (2 Bft)
04.03.2016 05:00 -1,7 C -2,0 C 87 % 1006,4 hPa 0,0 mm 4,6 km/h (1 Bft) W-SW 0,00 h -3,5 C 5,3 km/h (1 Bft)
04.03.2016 06:00 -2,6 C -2,9 C 87 % 1006,2 hPa 0,0 mm 1,9 km/h (1 Bft) SW 0,00 h -4,4 C 2,5 km/h (1 Bft)
04.03.2016 07:00 -3,5 C -3,9 C 88 % 1005,9 hPa 0,0 mm 0,1 km/h (0 Bft) N 0,00 h -5,2 C 0,0 km/h (0 Bft)
04.03.2016 08:00 -3,1 C -3,0 C 88 % 1005,3 hPa 0,0 mm 0,0 km/h (0 Bft) N 0,00 h -4,8 C 0,0 km/h (0 Bft)
04.03.2016 09:00 -1,3 C 5,3 C 84 % 1004,8 hPa 0,0 mm 3,8 km/h (1 Bft) NO 1,00 h -3,7 C 5,3 km/h (1 Bft)
04.03.2016 10:00 1,6 C 7,7 C 79 % 1005,3 hPa 0,0 mm 6,2 km/h (2 Bft) O-NO 1,00 h -1,7 C 8,0 km/h (2 Bft)
04.03.2016 11:00 3,3 C 8,0 C 72 % 1005,1 hPa 1,4 mm 8,9 km/h (2 Bft) O-NO 0,48 h -1,2 C 9,3 km/h (2 Bft)
04.03.2016 12:00 4,6 C 9,5 C 66 % 1004,1 hPa 0,7 mm 7,2 km/h (2 Bft) O-NO 0,17 h -1,2 C 9,8 km/h (2 Bft)
04.03.2016 13:00 5,2 C 9,8 C 63 % 1002,3 hPa 0,0 mm 7,2 km/h (2 Bft) NO 0,17 h -1,2 C 7,8 km/h (2 Bft)
04.03.2016 14:00 6,1 C 10,0 C 60 % 1001,2 hPa 0,0 mm 3,7 km/h (1 Bft) NO 0,00 h -1,2 C 5,7 km/h (1 Bft)
04.03.2016 15:00 4,7 C 7,9 C 61 % 1000,5 hPa 0,0 mm 0,8 km/h (0 Bft) O-SO 0,00 h -2,2 C 0,7 km/h (0 Bft)
04.03.2016 16:00 3,5 C 5,3 C 65 % 999,6 hPa 0,0 mm 0,3 km/h (0 Bft) N 0,00 h -2,4 C 0,3 km/h (0 Bft)
04.03.2016 17:00 2,4 C 3,0 C 71 % 998,5 hPa 0,0 mm 0,3 km/h (0 Bft) N 0,00 h -2,4 C 0,3 km/h (0 Bft)
04.03.2016 18:00 1,5 C 1,1 C 75 % 998,3 hPa 0,0 mm 3,9 km/h (1 Bft) W-SW 0,00 h -2,5 C 6,3 km/h (2 Bft)
04.03.2016 19:00 1,6 C 1,3 C 73 % 999,0 hPa 0,0 mm 4,8 km/h (1 Bft) W-SW 0,00 h -2,6 C 4,5 km/h (1 Bft)
04.03.2016 20:00 0,0 C -0,4 C 78 % 998,4 hPa 0,0 mm 0,2 km/h (0 Bft) N 0,00 h -3,3 C 0,3 km/h (0 Bft)
04.03.2016 21:00 -0,5 C -0,8 C 83 % 997,7 hPa 0,0 mm 1,8 km/h (1 Bft) O-NO 0,00 h -3,0 C 2,3 km/h (1 Bft)
04.03.2016 22:00 -0,3 C -0,5 C 84 % 997,6 hPa 0,0 mm 1,3 km/h (1 Bft) S 0,00 h -2,6 C 1,6 km/h (1 Bft)
04.03.2016 23:00 -0,2 C -0,5 C 85 % 997,4 hPa 0,0 mm 1,5 km/h (1 Bft) O-NO 0,00 h -2,4 C 2,0 km/h (1 Bft)
05.03.2016 00:00 -0,8 C -1,1 C 84 % 996,9 hPa 0,0 mm 0,1 km/h (0 Bft) N 0,00 h -3,1 C 0,0 km/h (0 Bft)
05.03.2016 01:00 0,4 C 0,4 C 81 % 996,3 hPa 0,0 mm 1,7 km/h (1 Bft) SO 0,00 h -2,5 C 5,0 km/h (1 Bft)
05.03.2016 02:00 4,3 C 4,7 C 60 % 995,7 hPa 0,0 mm 2,9 km/h (1 Bft) SO 0,00 h -2,9 C 4,4 km/h (1 Bft)
05.03.2016 03:00 3,9 C 4,0 C 57 % 995,0 hPa 0,0 mm 1,2 km/h (1 Bft) W-SW 0,00 h -3,8 C 3,0 km/h (1 Bft)
05.03.2016 04:00 2,7 C 2,6 C 59 % 994,7 hPa 0,0 mm 3,4 km/h (1 Bft) SW 0,00 h -4,5 C 6,6 km/h (2 Bft)
05.03.2016 05:00 1,1 C 0,9 C 65 % 994,6 hPa 0,0 mm 0,5 km/h (0 Bft) S 0,00 h -4,7 C 0,7 km/h (0 Bft)
05.03.2016 06:00 0,8 C 0,1 C 67 % 995,5 hPa 0,0 mm 7,0 km/h (2 Bft) W-SW 0,00 h -4,6 C 10,4 km/h (2 Bft)
05.03.2016 07:00 2,3 C 2,0 C 63 % 996,2 hPa 0,0 mm 8,3 km/h (2 Bft) W-SW 0,00 h -4,0 C 8,4 km/h (2 Bft)
05.03.2016 08:00 2,5 C 4,0 C 63 % 996,3 hPa 0,0 mm 5,0 km/h (1 Bft) SW 0,00 h -3,8 C 5,6 km/h (1 Bft)
05.03.2016 09:00 4,4 C 6,6 C 63 % 996,3 hPa 0,0 mm 5,1 km/h (1 Bft) SW 0,00 h -2,1 C 6,7 km/h (2 Bft)
05.03.2016 10:00 4,9 C 6,7 C 64 % 996,6 hPa 0,0 mm 8,4 km/h (2 Bft) NW 0,00 h -1,4 C 11,8 km/h (2 Bft)
05.03.2016 11:00 4,6 C 6,8 C 68 % 997,2 hPa 0,0 mm 13,4 km/h (3 Bft) W 0,00 h -0,9 C 18,2 km/h (3 Bft)
05.03.2016 12:00 5,0 C 8,1 C 68 % 997,1 hPa 0,0 mm 7,3 km/h (2 Bft) W 0,00 h -0,3 C 7,5 km/h (2 Bft)
05.03.2016 13:00 5,2 C 7,8 C 68 % 996,4 hPa 0,0 mm 6,4 km/h (2 Bft) NW 0,00 h -0,2 C 8,4 km/h (2 Bft)
05.03.2016 14:00 4,2 C 5,5 C 69 % 996,1 hPa 0,0 mm 4,2 km/h (1 Bft) NW 0,00 h -1,0 C 5,9 km/h (2 Bft)
05.03.2016 15:00 2,9 C 2,9 C 73 % 996,0 hPa 0,0 mm 6,5 km/h (2 Bft) W 0,00 h -1,5 C 8,5 km/h (2 Bft)
05.03.2016 16:00 0,9 C 0,7 C 78 % 996,3 hPa 0,7 mm 6,1 km/h (2 Bft) W-NW 0,00 h -2,4 C 7,9 km/h (2 Bft)
05.03.2016 17:00 0,6 C 0,3 C 83 % 996,3 hPa 0,0 mm 3,4 km/h (1 Bft) W 0,00 h -1,9 C 2,9 km/h (1 Bft)
05.03.2016 18:00 0,4 C 0,2 C 86 % 996,7 hPa 0,0 mm 2,8 km/h (1 Bft) W-SW 0,00 h -1,7 C 2,9 km/h (1 Bft)
05.03.2016 19:00 0,4 C 0,1 C 88 % 996,9 hPa 0,0 mm 3,9 km/h (1 Bft) W-SW 0,00 h -1,4 C 4,8 km/h (1 Bft)
05.03.2016 20:00 0,3 C 0,1 C 87 % 997,2 hPa 0,0 mm 2,1 km/h (1 Bft) W-SW 0,00 h -1,7 C 2,8 km/h (1 Bft)
05.03.2016 21:00 0,2 C 0,0 C 89 % 997,6 hPa 0,0 mm 0,0 km/h (0 Bft) N 0,00 h -1,4 C 0,0 km/h (0 Bft)
05.03.2016 22:00 0,2 C -0,1 C 89 % 997,9 hPa 0,0 mm 0,0 km/h (0 Bft) N 0,00 h -1,4 C 0,0 km/h (0 Bft)
05.03.2016 23:00 0,0 C -0,1 C 87 % 997,6 hPa 0,0 mm 0,0 km/h (0 Bft) N 0,00 h -1,9 C 0,0 km/h (0 Bft)
06.03.2016 00:00 -0,1 C -0,2 C 89 % 997,7 hPa 0,0 mm 0,0 km/h (0 Bft) N 0,00 h -1,6 C 0,0 km/h (0 Bft)
06.03.2016 01:00 -0,1 C -0,3 C 89 % 998,3 hPa 0,0 mm 0,0 km/h (0 Bft) N 0,00 h -1,7 C 0,0 km/h (0 Bft)
06.03.2016 02:00 -0,0 C -0,2 C 89 % 998,7 hPa 0,0 mm 0,0 km/h (0 Bft) N 0,00 h -1,7 C 0,0 km/h (0 Bft)
06.03.2016 03:00 -0,5 C -0,7 C 90 % 998,8 hPa 0,0 mm 0,0 km/h (0 Bft) N 0,00 h -1,9 C 0,0 km/h (0 Bft)
06.03.2016 04:00 -0,9 C -1,1 C 90 % 998,8 hPa 0,0 mm 0,0 km/h (0 Bft) N 0,00 h -2,4 C 0,0 km/h (0 Bft)
06.03.2016 05:00 -0,8 C -1,0 C 90 % 999,2 hPa 0,0 mm 0,0 km/h (0 Bft) N 0,00 h -2,3 C 0,0 km/h (0 Bft)
06.03.2016 06:00 -1,1 C -1,4 C 89 % 999,8 hPa 0,0 mm 0,0 km/h (0 Bft) N 0,00 h -2,6 C 0,0 km/h (0 Bft)
06.03.2016 07:00 -1,2 C -1,2 C 86 % 1000,5 hPa 0,0 mm 0,0 km/h (0 Bft) N 0,00 h -3,2 C 0,0 km/h (0 Bft)
06.03.2016 08:00 -1,0 C -0,2 C 85 % 1001,1 hPa 0,0 mm 0,0 km/h (0 Bft) N 0,00 h -3,2 C 0,0 km/h (0 Bft)
06.03.2016 09:00 -0,6 C 0,8 C 83 % 1001,8 hPa 0,0 mm 0,0 km/h (0 Bft) N 0,00 h -3,1 C 0,0 km/h (0 Bft)
06.03.2016 10:00 0,4 C 3,3 C 80 % 1002,9 hPa 0,7 mm 2,9 km/h (1 Bft) W-SW 0,00 h -2,7 C 5,7 km/h (1 Bft)
06.03.2016 11:00 1,8 C 5,6 C 75 % 1004,1 hPa 1,4 mm 9,3 km/h (2 Bft) W 0,00 h -2,1 C 12,7 km/h (3 Bft)
06.03.2016 12:00 2,2 C 5,6 C 71 % 1004,9 hPa 2,1 mm 9,0 km/h (2 Bft) W 0,00 h -2,6 C 11,9 km/h (2 Bft)
06.03.2016 13:00 2,7 C 7,9 C 67 % 1003,9 hPa 0,0 mm 6,6 km/h (2 Bft) W-SW 0,08 h -2,9 C 8,9 km/h (2 Bft)
06.03.2016 14:00 3,8 C 8,3 C 60 % 1004,2 hPa 0,0 mm 9,1 km/h (2 Bft) W-NW 0,33 h -3,2 C 11,3 km/h (2 Bft)
06.03.2016 15:00 3,1 C 7,6 C 59 % 1003,9 hPa 0,0 mm 8,5 km/h (2 Bft) W-SW 0,48 h -4,1 C 11,7 km/h (2 Bft)
06.03.2016 16:00 1,2 C 3,8 C 63 % 1003,0 hPa 0,0 mm 8,0 km/h (2 Bft) W 0,12 h -5,0 C 10,0 km/h (2 Bft)
06.03.2016 17:00 -0,0 C 0,2 C 66 % 1002,6 hPa 0,0 mm 3,6 km/h (1 Bft) W-SW 0,00 h -5,6 C 4,6 km/h (1 Bft)
06.03.2016 18:00 -1,3 C -1,9 C 69 % 1002,8 hPa 0,0 mm 5,4 km/h (1 Bft) SW 0,00 h -6,3 C 7,4 km/h (2 Bft)
06.03.2016 19:00 -2,0 C -2,7 C 74 % 1003,1 hPa 0,0 mm 5,7 km/h (1 Bft) SW 0,00 h -6,1 C 7,3 km/h (2 Bft)
06.03.2016 20:00 -2,8 C -3,5 C 76 % 1003,4 hPa 0,0 mm 6,5 km/h (2 Bft) SW 0,00 h -6,3 C 7,6 km/h (2 Bft)
06.03.2016 21:00 -3,5 C -4,1 C 79 % 1003,6 hPa 0,0 mm 3,5 km/h (1 Bft) SO 0,00 h -6,6 C 3,6 km/h (1 Bft)
06.03.2016 22:00 -4,8 C -5,4 C 80 % 1003,7 hPa 0,0 mm 0,0 km/h (0 Bft) N 0,00 h -7,7 C 0,0 km/h (0 Bft)
06.03.2016 23:00 -4,9 C -5,5 C 82 % 1003,6 hPa 0,0 mm 1,0 km/h (0 Bft) SO 0,00 h -7,5 C 1,4 km/h (1 Bft)
Min-Datum _ 06.03.16 06.03.16 05.03.16 05.03.16 - 06.03.16 - - 06.03.16 06.03.16
_ Min-Zeit 23:04 23:04 04:00 05:10 - 23:04 - - 22:39 23:04
Minimum _ -5,5 C -6,0 C 57 % 994,4 hPa - 0,0 km/h (0 Bft) - - -8,5 C 0,0 km/h (0 Bft)
Max-Datum _ 02.03.16 02.03.16 29.02.16 01.03.16 02.03.16 02.03.16 - 06.03.16 02.03.16 02.03.16
_ Max-Zeit 12:15 11:30 06:03 12:00 08:55 18:35 - 16:27 11:40 18:05
Maximum _ 7,1 C 13,8 C 94 % 1018,2 hPa 3,4 mm 20,9 km/h
NW (4 Bft)
- 0,08 h 3,4 C 50,1 km/h
NW (7 Bft)
Durchschnitt _ 0,3 C 1,1 C 82 % 1005,1 hPa #33,0 mm 3,5 km/h (1 Bft) W-SW #7:21 h -2,5 C 4,6 km/h (1 Bft)